Flag for Canada Weather past 2 weeks in Rainy River, Ontario, Canada

Now
67 °F

Clear.


Feels Like: 67 °F
Forecast: 63 / 82 °F
Wind: 14 mph from Southeast

Location: Baudette International Airport

Current Time: Sep 4, 2015 at 3:02:33 AM

Latest Report: Sep 4, 2015 at 1:53 AM


Visibility: 10 mi

Pressure: 29.88 "Hg

Humidity: 85%

Dew point: 62 °F

Location of Rainy RiverLocation

Historic Weather in Rainy River — Graph

°F

Rainy River temperature yesterday

Maximum temperature yesterday: 85 °F (at 2:53 PM)
Minimum temperature yesterday: 63 °F (at 3:53 AM)
Average temperature yesterday: 72 °F

Past Weeks' High & Low Weather Summary

 TemperatureHumidityPressure
High86 °F (Sep 2, 2:53 PM)100% (Aug 29, 6:53 AM)30.22 "Hg (Aug 29, 6:53 AM)
Low40 °F (Aug 26, 5:53 AM)31% (Sep 1, 2:53 PM)29.39 "Hg (Aug 22, 7:53 PM)
Average64 °F79%29.86 "Hg
* Reported Aug 20 1:53 AM — Sep 4 1:53 AM, Rainy River, Weather by CustomWeather, © 2015

Note: Actual official high and low records may vary slightly from our data, if they occured in-between our weather recording intervals... More about our weather records

Advertising

Rainy River weather history for previous 24 hours

 ConditionsComfort  
Time TempWeatherWind HumidityBarometerVisibility
1:53 AM
Fri, Sep 4
67 °FClear.14 mph85%29.88 "Hg10 mi
12:53 AM67 °FClear.9 mph85%29.88 "Hg10 mi
11:53 PM
Thu, Sep 3
69 °FClear.10 mph79%29.87 "Hg10 mi
10:53 PM70 °FClear.12 mph76%29.86 "Hg10 mi
9:53 PM71 °FClear.10 mph76%29.86 "Hg10 mi
8:53 PM74 °FSunny.13 mph69%29.85 "Hg10 mi
7:53 PM77 °FSunny.10 mph64%29.83 "Hg10 mi
6:53 PM81 °FSunny.15 mph56%29.83 "Hg10 mi
5:53 PM83 °FSunny.13 mph55%29.82 "Hg10 mi
4:53 PM85 °FSunny.20 mph48%29.83 "Hg10 mi
3:53 PM85 °FSunny.15 mph50%29.83 "Hg10 mi
2:53 PM85 °FSunny.13 mph50%29.83 "Hg10 mi
1:53 PM83 °FSunny.14 mph55%29.85 "Hg10 mi
12:53 PM79 °FSunny.16 mph65%29.87 "Hg10 mi
11:53 AM74 °FPassing clouds.16 mph74%29.88 "Hg10 mi
10:53 AM70 °FOvercast.15 mph81%29.89 "Hg10 mi
9:53 AM67 °FLow clouds.16 mph87%29.90 "Hg10 mi
8:53 AM66 °FLow clouds.13 mph90%29.90 "Hg10 mi
7:53 AM65 °FLow clouds.15 mph91%29.91 "Hg10 mi
6:53 AM64 °FLow clouds.8 mph94%29.90 "Hg10 mi
5:53 AM63 °FLow clouds.10 mph97%29.88 "Hg8 mi
4:53 AM63 °FClear.9 mph97%29.88 "Hg8 mi
3:53 AM63 °FClear.8 mph97%29.88 "Hg9 mi
Weather by CustomWeather, © 2015

See weather overviewHow to use our weather pages